Wind_Speed
71 72 73 75 78 75 71 62 57 55 50 43 38 36 33 32 37 41 43 40 40 39 36 38 38 35 29 30 29 31 28 25 25 25 24 30 26 33 36 36 36 39 37
72 75 75 75 67 62 54 55 56 53 49 45 39 32 27 30 25 36 44 42 43 40 42 42 33 31 31 33 36 37 32 30 26 23 25 24 23 23 35 35 34 38 39
75 74 71 64 56 53 51 50 52 46 42 36 33 31 27 26 30 23 41 47 44 42 40 31 35 29 31 37 35 34 34 28 27 25 27 26 26 24 27 34 33 33 39
76 69 60 55 51 45 44 46 43 28 19 23 23 32 34 32 35 36 47 47 47 43 38 29 30 34 33 37 35 33 30 31 30 29 27 26 25 25 27 29 30 32 36
63 56 52 48 43 38 34 36 27 15 11 23 28 30 36 37 32 42 43 44 43 39 39 39 40 34 35 37 35 32 29 32 33 29 29 28 26 27 28 28 28 29 28
52 47 43 39 35 29 25 24 8 9 21 33 34 29 32 37 38 37 39 47 45 44 42 39 38 35 34 36 34 32 31 29 30 30 30 30 28 29 29 29 28 28 28
47 44 38 33 28 22 17 16 16 17 34 39 35 28 33 36 42 39 35 39 39 33 36 36 34 35 39 37 34 33 33 31 29 29 28 28 28 30 31 32 33 34 33
44 38 33 27 24 18 12 13 23 30 41 43 40 37 39 32 42 39 35 30 31 34 37 35 35 39 39 36 35 33 32 30 29 32 34 32 35 35 34 32 32 31 31
39 32 27 24 24 17 15 18 26 40 46 43 44 45 37 34 30 38 30 36 35 32 36 37 39 41 45 40 39 37 34 35 33 35 35 38 39 39 38 37 36 35 34
34 27 23 22 23 15 18 24 34 46 47 50 47 43 45 40 36 42 43 33 39 39 41 40 34 37 41 41 40 37 36 38 39 36 38 35 34 34 34 33 32 34 34
30 25 21 21 22 14 18 26 44 51 53 55 52 41 47 41 48 47 49 48 41 36 38 49 41 38 39 35 33 32 31 36 39 36 40 40 37 37 38 38 37 38 37
26 24 20 18 21 13 17 29 47 57 56 53 40 43 52 50 50 45 53 50 49 47 41 39 38 42 41 38 37 36 35 38 39 38 39 37 36 34 32 44 37 38 38
24 23 19 18 20 14 17 32 46 58 61 59 52 39 47 45 54 50 53 54 44 55 51 47 41 46 44 38 39 39 38 41 42 42 38 38 35 34 34 39 39 41 43
23 21 19 18 20 16 18 31 47 53 62 59 53 46 44 45 48 52 53 61 54 40 49 51 47 46 45 44 43 44 38 39 40 40 42 40 38 39 37 41 43 44 45
26 21 18 17 20 20 19 28 49 57 62 62 59 56 51 43 48 49 63 64 64 58 48 51 53 48 47 43 44 48 42 39 38 37 39 40 41 41 45 44 42 42 43
32 24 19 18 16 20 21 25 45 56 65 56 53 57 58 52 54 42 52 61 65 60 60 55 50 49 45 49 50 48 43 45 45 49 48 44 43 45 47 45 46 44 48
37 31 23 20 17 16 22 24 34 45 64 51 61 60 53 60 57 57 51 50 56 58 60 61 57 57 53 51 55 56 55 55 56 53 55 46 46 47 49 52 50 50 47
43 36 32 26 22 19 17 25 29 40 57 66 58 56 55 57 61 57 64 62 58 57 54 57 65 61 60 59 57 57 55 53 53 52 53 54 58 54 56 55 53 55 57
51 43 38 35 29 27 23 20 25 37 49 57 57 57 55 56 62 69 64 63 67 67 63 58 58 63 64 63 60 56 54 56 57 54 53 56 56 59 59 61 60 60 61
53 48 45 44 36 33 30 28 26 23 46 53 53 58 59 59 59 64 67 68 66 69 70 67 56 57 63 64 66 62 65 64 60 59 56 58 60 63 67 64 64 58 58
54 51 49 49 46 43 37 35 32 31 28 39 51 58 53 62 59 59 59 58 60 69 73 75 71 65 57 59 63 66 64 61 62 63 59 59 62 66 70 71 70 65 67
56 56 55 55 51 47 45 42 41 39 37 35 36 43 56 60 60 64 62 67 65 61 63 65 68 70 75 73 66 63 69 68 69 73 69 73 72 73 72 67 70 73 71
60 58 59 57 54 53 52 48 47 45 46 44 42 44 50 49 58 62 69 67 69 70 68 63 65 70 74 72 71 73 74 72 77 74 74 76 77 80 82 82 81 82 79
64 63 63 61 58 56 54 53 54 52 51 50 49 45 42 50 55 53 69 71 73 77 75 74 71 71 74 74 72 75 78 75 71 76 75 78 78 75 75 75 77 73 71
67 65 62 62 60 59 59 60 60 61 60 58 55 55 54 52 52 55 58 61 73 79 83 79 80 79 78 76 77 78 77 81 84 82 83 84 83 84 87 78 79 80 81
70 69 68 66 66 64 63 63 63 64 63 65 64 62 62 60 58 60 62 65 67 69 72 79 85 89 90 89 88 88 88 88 90 88 89 88 90 92 92 90 93 94 91
Wind_Direction
292 294 297 296 296 295 293 290 285 284 280 273 268 269 253 241 233 220 212 212 208 208 208 202 195 206 213 229 231 234 231 229 228 227 226 234 232 230 231 232 234 225 226
297 298 298 298 295 294 291 290 287 284 278 273 260 251 233 224 219 211 208 195 199 204 204 209 204 210 219 221 231 233 231 235 237 229 228 226 226 229 230 230 234 232 230
299 298 299 294 293 293 292 291 291 290 273 255 246 211 215 198 187 195 193 185 192 197 202 197 207 215 216 219 225 227 231 233 232 231 233 238 235 237 236 230 232 235 232
299 297 294 293 290 292 292 296 302 298 266 234 214 198 186 185 181 193 183 182 186 193 191 178 224 212 217 215 217 219 220 219 220 222 232 232 234 242 237 234 235 237 240
295 295 292 291 289 293 293 299 301 264 190 174 170 185 176 177 183 175 184 180 180 183 190 196 201 213 217 217 218 218 219 224 224 223 230 231 234 238 234 236 242 242 240
297 294 292 289 288 288 294 291 252 229 164 155 158 154 170 173 176 173 175 185 179 191 201 205 208 210 220 216 212 218 222 229 227 226 231 231 238 239 238 237 241 242 243
297 296 289 285 281 277 289 269 196 189 154 147 144 155 167 172 173 180 181 187 183 195 207 212 215 217 219 223 219 217 222 227 229 226 227 231 241 245 242 242 241 243 240
302 298 286 275 270 271 257 236 182 174 160 152 153 153 160 174 182 186 193 191 209 209 209 209 213 213 214 220 221 223 225 225 232 236 234 240 245 245 242 240 235 237 241
309 301 282 265 259 260 242 205 189 169 163 161 160 151 164 189 193 185 200 199 205 212 219 213 215 215 218 217 220 225 231 228 229 231 233 242 236 234 235 235 237 239 242
321 308 283 259 250 252 241 200 188 175 172 165 161 165 170 186 196 209 192 194 204 217 221 221 217 216 218 222 227 226 225 226 242 234 231 231 229 231 233 233 234 235 237
333 321 296 260 247 243 227 199 187 179 172 167 178 181 179 186 196 204 193 199 206 208 212 219 216 215 215 224 230 225 235 233 234 241 236 235 236 238 241 236 238 241 244
331 331 307 265 255 242 221 200 190 184 183 184 181 183 187 194 210 207 200 200 224 217 215 217 215 218 223 230 228 238 232 235 233 238 240 236 238 241 246 242 240 245 242
323 336 312 269 263 252 226 201 196 196 188 187 196 191 195 197 206 207 209 208 214 222 218 228 223 220 222 236 238 239 233 232 235 238 241 246 247 248 243 238 237 241 242
312 321 322 281 267 252 226 202 198 202 194 197 198 198 201 201 206 207 215 211 218 209 223 228 226 228 235 243 242 233 235 232 232 243 249 250 245 244 240 240 243 242 244
294 305 314 308 270 260 228 211 202 205 203 207 209 214 215 220 207 210 209 214 220 221 222 228 230 231 236 233 236 232 230 236 244 244 247 244 241 244 246 251 245 248 255
282 285 297 302 299 264 247 218 211 211 209 217 217 220 222 219 217 227 220 216 224 229 228 232 226 224 233 232 234 231 235 237 245 247 245 245 246 249 250 251 249 251 255
277 279 280 282 287 285 255 236 214 215 217 221 218 225 228 222 222 226 223 223 225 232 230 236 237 228 239 241 241 239 246 248 251 250 243 244 250 251 252 249 245 252 254
273 272 276 274 273 274 275 250 235 218 218 220 231 230 233 233 222 227 225 227 224 230 235 241 240 240 239 242 244 245 242 239 244 242 250 253 255 250 249 252 257 260 260
271 267 270 272 270 267 265 264 254 231 221 223 230 231 233 234 233 231 231 232 233 233 234 241 246 245 241 241 246 243 241 241 246 245 249 248 252 251 251 257 260 262 258
269 266 267 267 265 266 263 259 256 247 229 226 229 233 234 237 234 235 237 240 240 240 238 239 243 243 244 247 248 247 245 246 242 246 249 253 253 253 256 258 261 254 257
263 264 259 262 263 263 259 261 258 251 239 239 236 232 235 236 239 243 239 237 243 245 245 244 249 246 245 244 245 246 244 246 249 249 249 249 250 253 255 259 257 257 258
256 257 256 257 259 257 257 256 259 258 254 246 241 241 239 240 243 241 242 244 244 244 243 245 247 251 254 250 249 248 250 252 251 250 247 249 252 253 253 256 259 259 264
260 256 257 258 260 257 255 253 252 255 258 256 251 244 241 247 247 241 243 242 243 243 246 248 248 247 248 249 252 252 248 249 251 252 251 251 251 253 254 257 258 261 265
255 254 255 256 256 257 256 254 254 251 253 255 259 257 253 245 248 250 246 245 248 247 249 249 247 250 251 250 253 250 251 250 252 256 257 255 257 259 261 261 262 260 260
249 250 250 253 254 253 252 252 254 256 255 252 253 254 258 259 261 258 252 254 252 250 249 252 251 248 246 250 249 251 251 250 246 249 250 254 254 255 256 253 257 262 260
244 247 249 250 253 253 252 252 253 255 254 252 251 250 254 256 259 260 258 257 257 257 257 257 252 252 253 254 255 255 253 252 250 248 249 252 255 260 258 260 260 262 266
Height
10753 10749 10745 10739 10732 10725 10719 10714 10710 10710 10710 10711 10714 10712 10715 10718 10722 10732 10741 10750 10760 10769 10775 10779 10787 10789 10792 10796 10801 10806 10809 10813 10816 10818 10821 10824 10826 10829 10833 10837 10840 10844 10848
10742 10738 10732 10725 10718 10712 10707 10703 10699 10698 10698 10698 10702 10708 10709 10713 10719 10728 10736 10746 10755 10764 10770 10776 10781 10785 10789 10794 10798 10802 10805 10808 10812 10814 10818 10820 10822 10825 10828 10831 10835 10838 10842
10729 10723 10718 10714 10708 10703 10698 10694 10690 10686 10681 10684 10690 10699 10702 10711 10717 10727 10733 10741 10751 10760 10766 10773 10778 10781 10785 10790 10794 10798 10801 10804 10806 10809 10813 10816 10818 10821 10824 10827 10830 10833 10837
10716 10711 10705 10702 10699 10696 10691 10686 10682 10675 10671 10676 10684 10691 10698 10708 10715 10718 10729 10739 10748 10756 10763 10772 10775 10777 10780 10784 10789 10792 10795 10800 10802 10806 10809 10812 10814 10816 10819 10822 10825 10829 10832
10704 10699 10694 10692 10691 10689 10686 10682 10678 10674 10668 10672 10679 10691 10698 10707 10714 10722 10728 10736 10744 10751 10758 10764 10768 10771 10775 10780 10783 10786 10791 10795 10798 10801 10804 10807 10811 10813 10814 10818 10821 10824 10827
10694 10691 10686 10684 10683 10682 10681 10679 10677 10675 10672 10674 10681 10691 10700 10708 10714 10720 10727 10734 10740 10747 10755 10760 10764 10769 10771 10774 10778 10783 10787 10790 10793 10796 10799 10803 10806 10808 10811 10814 10817 10820 10822
10685 10682 10678 10676 10676 10676 10676 10676 10676 10675 10676 10676 10681 10691 10703 10709 10715 10720 10726 10732 10737 10744 10750 10755 10761 10765 10768 10770 10774 10779 10782 10785 10788 10792 10795 10798 10800 10803 10807 10810 10813 10815 10816
10677 10673 10671 10669 10670 10670 10671 10673 10674 10674 10676 10676 10681 10688 10698 10710 10715 10722 10727 10730 10735 10741 10746 10751 10756 10759 10762 10766 10770 10774 10778 10780 10783 10787 10790 10792 10795 10798 10801 10804 10806 10808 10810
10670 10664 10664 10663 10663 10666 10668 10669 10671 10673 10676 10680 10683 10687 10693 10709 10713 10720 10722 10727 10731 10735 10738 10743 10749 10754 10756 10759 10763 10768 10773 10776 10779 10782 10785 10787 10789 10792 10795 10798 10800 10803 10805
10665 10659 10657 10657 10658 10662 10664 10666 10667 10670 10673 10677 10683 10689 10693 10702 10709 10714 10719 10724 10726 10729 10731 10736 10742 10747 10750 10753 10758 10763 10767 10769 10774 10777 10779 10781 10784 10786 10789 10793 10795 10796 10798
10661 10655 10652 10652 10654 10658 10661 10662 10667 10669 10671 10674 10678 10685 10689 10697 10703 10707 10711 10717 10722 10723 10727 10730 10736 10742 10746 10749 10753 10758 10762 10764 10767 10769 10773 10776 10779 10781 10784 10787 10787 10790 10792
10659 10653 10649 10650 10652 10653 10656 10658 10664 10666 10668 10670 10676 10680 10687 10692 10695 10699 10704 10710 10715 10720 10723 10727 10732 10737 10740 10742 10746 10751 10755 10758 10761 10764 10766 10769 10771 10774 10777 10779 10781 10784 10786
10658 10652 10647 10648 10649 10651 10651 10654 10658 10663 10665 10666 10670 10676 10681 10685 10689 10691 10698 10704 10709 10714 10718 10721 10726 10731 10733 10736 10739 10744 10747 10751 10754 10756 10760 10762 10765 10767 10769 10771 10774 10777 10779
10655 10651 10646 10645 10646 10647 10649 10650 10655 10659 10664 10665 10666 10669 10674 10678 10683 10687 10694 10699 10704 10708 10711 10715 10720 10724 10727 10729 10733 10737 10740 10744 10746 10750 10753 10756 10758 10760 10762 10765 10768 10769 10771
10651 10649 10645 10642 10642 10644 10646 10647 10650 10654 10659 10662 10663 10666 10669 10673 10677 10682 10687 10692 10697 10702 10706 10709 10714 10717 10721 10724 10726 10730 10733 10736 10740 10743 10747 10749 10751 10753 10756 10758 10760 10761 10762
10644 10644 10642 10639 10638 10639 10641 10644 10647 10650 10652 10656 10658 10661 10663 10667 10673 10675 10680 10687 10691 10694 10699 10702 10707 10711 10714 10717 10721 10725 10728 10731 10734 10737 10739 10742 10744 10746 10747 10749 10751 10752 10753
10637 10638 10638 10636 10634 10634 10635 10638 10641 10644 10647 10649 10653 10656 10658 10663 10666 10671 10674 10679 10684 10688 10691 10695 10698 10704 10706 10708 10713 10718 10719 10723 10725 10727 10730 10732 10735 10736 10737 10739 10741 10743 10744
10629 10631 10631 10630 10629 10629 10629 10630 10633 10637 10639 10642 10645 10649 10652 10657 10660 10665 10668 10672 10675 10679 10683 10687 10691 10695 10698 10701 10703 10708 10710 10712 10715 10717 10720 10722 10724 10726 10727 10728 10730 10732 10734
10618 10622 10623 10623 10623 10622 10623 10623 10625 10628 10631 10634 10639 10642 10643 10649 10653 10658 10661 10664 10668 10670 10674 10677 10680 10684 10688 10691 10693 10696 10699 10702 10703 10706 10709 10712 10713 10714 10716 10718 10720 10720 10722
10604 10610 10612 10612 10614 10614 10614 10616 10616 10618 10623 10626 10630 10633 10636 10639 10642 10648 10652 10656 10659 10662 10664 10667 10669 10672 10677 10680 10683 10684 10688 10691 10692 10694 10696 10699 10701 10702 10704 10706 10707 10708 10710
10590 10595 10599 10600 10602 10605 10606 10606 10607 10609 10611 10614 10618 10624 10625 10629 10633 10638 10641 10644 10648 10651 10654 10656 10658 10660 10663 10667 10671 10672 10674 10677 10679 10682 10683 10686 10689 10690 10691 10692 10693 10695 10698
10575 10579 10584 10585 10588 10592 10594 10597 10597 10598 10600 10603 10605 10608 10612 10617 10621 10626 10629 10633 10635 10638 10640 10643 10645 10649 10652 10654 10656 10661 10663 10663 10664 10668 10670 10672 10674 10675 10677 10678 10681 10683 10685
10561 10563 10566 10569 10572 10576 10579 10582 10585 10587 10588 10590 10593 10595 10599 10604 10609 10613 10617 10618 10621 10624 10627 10630 10632 10634 10637 10640 10643 10647 10649 10649 10650 10652 10654 10655 10657 10659 10660 10662 10665 10667 10668
10546 10547 10549 10552 10556 10559 10561 10566 10569 10573 10575 10577 10579 10583 10586 10589 10594 10596 10600 10603 10607 10610 10613 10616 10619 10620 10623 10625 10627 10630 10633 10635 10636 10636 10637 10639 10641 10641 10643 10646 10648 10650 10651
10527 10530 10533 10534 10537 10541 10544 10547 10550 10554 10558 10563 10567 10571 10572 10573 10576 10579 10583 10585 10589 10593 10596 10598 10601 10604 10607 10609 10610 10612 10615 10617 10618 10619 10619 10620 10622 10625 10626 10629 10632 10634 10635
10509 10513 10515 10517 10519 10523 10525 10528 10531 10533 10539 10544 10550 10555 10558 10561 10563 10563 10565 10568 10570 10574 10577 10579 10582 10584 10586 10589 10590 10592 10595 10596 10596 10599 10600 10601 10603 10604 10607 10610 10611 10612 10613